Time,TemperatureF,DewpointF,PressureIn,WindDirection,WindDirectionDegrees,WindSpeedMPH,WindSpeedGustMPH,Humidity,HourlyPrecipIn,Conditions,Clouds,dailyrainin,SoftwareType,DateUTC
2013-02-24 00:01:00,34.0,-99.9,-100.00,North,354,2.0,5.0,-999,0.00,,,-99.99,,2013-02-24 07:01:00,
2013-02-24 00:12:00,34.0,-99.9,-100.00,North,354,2.0,5.0,-999,0.00,,,-99.99,,2013-02-24 07:12:00,
2013-02-24 00:22:00,35.0,-99.9,-100.00,North,0,0.0,0.0,-999,0.00,,,-99.99,,2013-02-24 07:22:00,
2013-02-24 00:32:00,34.0,-99.9,-100.00,North,0,0.0,0.0,-999,0.00,,,-99.99,,2013-02-24 07:32:00,
2013-02-24 00:42:00,34.0,-99.9,-100.00,North,0,0.0,0.0,-999,0.00,,,-99.99,,2013-02-24 07:42:00,
2013-02-24 00:52:00,34.0,-99.9,-100.00,North,0,0.0,0.0,-999,0.00,,,-99.99,,2013-02-24 07:52:00,
2013-02-24 01:01:00,33.0,-99.9,-100.00,NW,314,5.0,6.0,-999,0.00,,,-99.99,,2013-02-24 08:01:00,
2013-02-24 01:11:00,33.0,-99.9,-100.00,North,0,0.0,0.0,-999,0.00,,,-99.99,,2013-02-24 08:11:00,
2013-02-24 01:22:00,33.0,-99.9,-100.00,North,0,0.0,0.0,-999,0.00,,,-99.99,,2013-02-24 08:22:00,
2013-02-24 01:32:00,32.0,-99.9,-100.00,North,0,0.0,0.0,-999,0.00,,,-99.99,,2013-02-24 08:32:00,
2013-02-24 01:42:00,32.0,-99.9,-100.00,North,0,0.0,0.0,-999,0.00,,,-99.99,,2013-02-24 08:42:00,
2013-02-24 01:54:00,31.0,-99.9,-100.00,WNW,297,1.0,6.0,-999,0.00,,,-99.99,,2013-02-24 08:54:00,
2013-02-24 02:02:00,30.0,-99.9,-100.00,North,0,0.0,0.0,-999,0.00,,,-99.99,,2013-02-24 09:02:00,
2013-02-24 02:11:00,30.0,-99.9,-100.00,North,0,0.0,0.0,-999,0.00,,,-99.99,,2013-02-24 09:11:00,
2013-02-24 02:22:00,29.0,-99.9,-100.00,North,0,0.0,0.0,-999,0.00,,,-99.99,,2013-02-24 09:22:00,
2013-02-24 02:32:00,28.0,-99.9,-100.00,NNW,329,1.0,7.0,-999,0.00,,,-99.99,,2013-02-24 09:32:00,
2013-02-24 02:42:00,28.0,-99.9,-100.00,NNW,329,1.0,7.0,-999,0.00,,,-99.99,,2013-02-24 09:42:00,
2013-02-24 02:52:00,28.0,-99.9,-100.00,NNW,330,3.0,10.0,-999,0.00,,,-99.99,,2013-02-24 09:52:00,
2013-02-24 03:01:00,27.0,-99.9,-100.00,NW,325,2.0,10.0,-999,0.00,,,-99.99,,2013-02-24 10:01:00,
2013-02-24 03:11:00,27.0,-99.9,-100.00,NNW,335,3.0,10.0,-999,0.00,,,-99.99,,2013-02-24 10:11:00,
2013-02-24 03:22:00,27.0,-99.9,-100.00,NNW,335,3.0,10.0,-999,0.00,,,-99.99,,2013-02-24 10:22:00,
2013-02-24 03:32:00,26.0,-99.9,-100.00,NW,323,6.0,11.0,-999,0.00,,,-99.99,,2013-02-24 10:32:00,
2013-02-24 03:42:00,26.0,-99.9,-100.00,NW,323,6.0,11.0,-999,0.00,,,-99.99,,2013-02-24 10:42:00,
2013-02-24 03:52:00,25.0,-99.9,-100.00,NNW,342,9.0,12.0,-999,0.00,,,-99.99,,2013-02-24 10:52:00,
2013-02-24 04:01:00,25.0,-99.9,-100.00,NNW,335,10.0,14.0,-999,0.00,,,-99.99,,2013-02-24 11:01:00,
2013-02-24 04:11:00,25.0,-99.9,-100.00,NNW,335,10.0,14.0,-999,0.00,,,-99.99,,2013-02-24 11:11:00,
2013-02-24 04:22:00,25.0,-99.9,-100.00,NW,307,9.0,13.0,-999,0.00,,,-99.99,,2013-02-24 11:22:00,
2013-02-24 04:32:00,26.0,-99.9,-100.00,NNW,342,10.0,13.0,-999,0.00,,,-99.99,,2013-02-24 11:32:00,
2013-02-24 04:42:00,26.0,-99.9,-100.00,NNW,342,10.0,13.0,-999,0.00,,,-99.99,,2013-02-24 11:42:00,
2013-02-24 04:53:00,25.0,-99.9,-100.00,NW,314,10.0,15.0,-999,0.00,,,-99.99,,2013-02-24 11:53:00,
2013-02-24 05:02:00,25.0,-99.9,-100.00,North,357,10.0,13.0,-999,0.00,,,-99.99,,2013-02-24 12:02:00,
2013-02-24 05:11:00,25.0,-99.9,-100.00,North,357,10.0,13.0,-999,0.00,,,-99.99,,2013-02-24 12:11:00,
2013-02-24 05:22:00,26.0,-99.9,-100.00,NW,321,10.0,15.0,-999,0.00,,,-99.99,,2013-02-24 12:22:00,
2013-02-24 05:33:00,26.0,-99.9,-100.00,NW,321,10.0,15.0,-999,0.00,,,-99.99,,2013-02-24 12:33:00,
2013-02-24 05:46:00,26.0,-99.9,-100.00,NW,321,10.0,15.0,-999,0.00,,,-99.99,,2013-02-24 12:46:00,
2013-02-24 06:02:00,27.0,-99.9,-100.00,NNW,338,9.0,12.0,-999,0.00,,,-99.99,,2013-02-24 13:02:00,
2013-02-24 06:18:00,26.0,-99.9,-100.00,NW,314,9.0,12.0,-999,0.00,,,-99.99,,2013-02-24 13:18:00,
2013-02-24 06:27:00,26.0,-99.9,-100.00,NW,314,9.0,12.0,-999,0.00,,,-99.99,,2013-02-24 13:27:00,
2013-02-24 06:36:00,26.0,-99.9,-100.00,NW,308,9.0,13.0,-999,0.00,,,-99.99,,2013-02-24 13:36:00,
2013-02-24 06:46:00,26.0,-99.9,-100.00,NW,308,9.0,13.0,-999,0.00,,,-99.99,,2013-02-24 13:46:00,
2013-02-24 06:56:00,25.0,-99.9,-100.00,NNW,342,8.0,11.0,-999,0.00,,,-99.99,,2013-02-24 13:56:00,
2013-02-24 07:05:00,25.0,-99.9,-100.00,NNW,330,8.0,11.0,-999,0.00,,,-99.99,,2013-02-24 14:05:00,
2013-02-24 07:15:00,24.0,-99.9,-100.00,NNW,333,7.0,10.0,-999,0.00,,,-99.99,,2013-02-24 14:15:00,
2013-02-24 07:26:00,24.0,-99.9,-100.00,NNW,333,7.0,10.0,-999,0.00,,,-99.99,,2013-02-24 14:26:00,
2013-02-24 07:35:00,24.0,-99.9,-100.00,NNW,339,7.0,10.0,-999,0.00,,,-99.99,,2013-02-24 14:35:00,
2013-02-24 07:46:00,24.0,-99.9,-100.00,NNW,339,7.0,10.0,-999,0.00,,,-99.99,,2013-02-24 14:46:00,
2013-02-24 07:55:00,24.0,-99.9,-100.00,NW,316,9.0,12.0,-999,0.00,,,-99.99,,2013-02-24 14:55:00,
2013-02-24 08:04:00,25.0,-99.9,-100.00,NW,309,9.0,12.0,-999,0.00,,,-99.99,,2013-02-24 15:04:00,
2013-02-24 08:15:00,26.0,-99.9,-100.00,NW,315,8.0,11.0,-999,0.00,,,-99.99,,2013-02-24 15:15:00,
2013-02-24 08:24:00,26.0,-99.9,-100.00,NW,315,8.0,11.0,-999,0.00,,,-99.99,,2013-02-24 15:24:00,
2013-02-24 08:32:00,26.0,-99.9,-100.00,NW,319,9.0,12.0,-999,0.00,,,-99.99,,2013-02-24 15:32:00,
2013-02-24 08:43:00,26.0,-99.9,-100.00,NW,319,9.0,12.0,-999,0.00,,,-99.99,,2013-02-24 15:43:00,
2013-02-24 08:53:00,28.0,-99.9,-100.00,NNW,343,7.0,10.0,-999,0.00,,,-99.99,,2013-02-24 15:53:00,
2013-02-24 09:02:00,29.0,-99.9,-100.00,NW,323,8.0,10.0,-999,0.00,,,-99.99,,2013-02-24 16:02:00,
2013-02-24 09:12:00,30.0,-99.9,-100.00,NNW,347,8.0,10.0,-999,0.00,,,-99.99,,2013-02-24 16:12:00,
2013-02-24 09:22:00,30.0,-99.9,-100.00,NNW,347,8.0,10.0,-999,0.00,,,-99.99,,2013-02-24 16:22:00,
2013-02-24 09:32:00,30.0,-99.9,-100.00,NW,323,8.0,11.0,-999,0.00,,,-99.99,,2013-02-24 16:32:00,
2013-02-24 09:42:00,30.0,-99.9,-100.00,NW,323,8.0,11.0,-999,0.00,,,-99.99,,2013-02-24 16:42:00,
2013-02-24 09:52:00,31.0,-99.9,-100.00,North,352,7.0,10.0,-999,0.00,,,-99.99,,2013-02-24 16:52:00,
2013-02-24 10:01:00,32.0,-99.9,-100.00,NNW,342,7.0,11.0,-999,0.00,,,-99.99,,2013-02-24 17:01:00,
2013-02-24 10:11:00,32.0,-99.9,-100.00,NNW,342,7.0,11.0,-999,0.00,,,-99.99,,2013-02-24 17:11:00,
2013-02-24 10:22:00,33.0,-99.9,-100.00,NNW,330,6.0,10.0,-999,0.00,,,-99.99,,2013-02-24 17:22:00,
2013-02-24 10:32:00,33.0,-99.9,-100.00,North,349,7.0,9.0,-999,0.00,,,-99.99,,2013-02-24 17:32:00,
2013-02-24 10:42:00,33.0,-99.9,-100.00,North,349,7.0,9.0,-999,0.00,,,-99.99,,2013-02-24 17:42:00,
2013-02-24 10:53:00,34.0,-99.9,-100.00,NNW,330,7.0,9.0,-999,0.00,,,-99.99,,2013-02-24 17:53:00,
2013-02-24 11:02:00,34.0,-99.9,-100.00,NNW,336,6.0,9.0,-999,0.00,,,-99.99,,2013-02-24 18:02:00,
2013-02-24 11:12:00,34.0,-99.9,-100.00,NNW,336,6.0,9.0,-999,0.00,,,-99.99,,2013-02-24 18:12:00,
2013-02-24 11:22:00,35.0,-99.9,-100.00,NNW,347,6.0,9.0,-999,0.00,,,-99.99,,2013-02-24 18:22:00,
2013-02-24 11:32:00,36.0,-99.9,-100.00,NNW,343,6.0,9.0,-999,0.00,,,-99.99,,2013-02-24 18:32:00,
2013-02-24 11:42:00,36.0,-99.9,-100.00,NNW,343,6.0,9.0,-999,0.00,,,-99.99,,2013-02-24 18:42:00,
2013-02-24 11:52:00,36.0,-99.9,-100.00,North,349,6.0,10.0,-999,0.00,,,-99.99,,2013-02-24 18:52:00,
2013-02-24 12:02:00,36.0,-99.9,-100.00,North,350,6.0,7.0,-999,0.00,,,-99.99,,2013-02-24 19:02:00,
2013-02-24 12:12:00,36.0,-99.9,-100.00,North,350,6.0,7.0,-999,0.00,,,-99.99,,2013-02-24 19:12:00,
2013-02-24 12:22:00,37.0,-99.9,-100.00,NW,316,6.0,9.0,-999,0.00,,,-99.99,,2013-02-24 19:22:00,
2013-02-24 12:32:00,37.0,-99.9,-100.00,NW,326,6.0,10.0,-999,0.00,,,-99.99,,2013-02-24 19:32:00,
2013-02-24 12:42:00,37.0,-99.9,-100.00,NW,326,6.0,10.0,-999,0.00,,,-99.99,,2013-02-24 19:42:00,
2013-02-24 12:52:00,37.0,-99.9,-100.00,NNW,342,6.0,9.0,-999,0.00,,,-99.99,,2013-02-24 19:52:00,
2013-02-24 13:02:00,37.0,-99.9,-100.00,NW,319,7.0,9.0,-999,0.00,,,-99.99,,2013-02-24 20:02:00,
2013-02-24 13:11:00,37.0,-99.9,-100.00,NW,319,7.0,9.0,-999,0.00,,,-99.99,,2013-02-24 20:11:00,
2013-02-24 13:22:00,38.0,-99.9,-100.00,NNW,330,7.0,10.0,-999,0.00,,,-99.99,,2013-02-24 20:22:00,
2013-02-24 13:32:00,38.0,-99.9,-100.00,North,353,5.0,9.0,-999,0.00,,,-99.99,,2013-02-24 20:32:00,
2013-02-24 13:42:00,39.0,-99.9,-100.00,NNW,328,5.0,8.0,-999,0.00,,,-99.99,,2013-02-24 20:42:00,
2013-02-24 13:52:00,39.0,-99.9,-100.00,NNW,328,5.0,8.0,-999,0.00,,,-99.99,,2013-02-24 20:52:00,
2013-02-24 14:02:00,39.0,-99.9,-100.00,NNW,336,6.0,9.0,-999,0.00,,,-99.99,,2013-02-24 21:02:00,
2013-02-24 14:11:00,39.0,-99.9,-100.00,NNW,336,6.0,9.0,-999,0.00,,,-99.99,,2013-02-24 21:11:00,
2013-02-24 14:22:00,39.0,-99.9,-100.00,NNW,339,6.0,9.0,-999,0.00,,,-99.99,,2013-02-24 21:22:00,
2013-02-24 14:32:00,39.0,-99.9,-100.00,North,359,4.0,7.0,-999,0.00,,,-99.99,,2013-02-24 21:32:00,
2013-02-24 14:42:00,39.0,-99.9,-100.00,North,359,4.0,7.0,-999,0.00,,,-99.99,,2013-02-24 21:42:00,
2013-02-24 14:52:00,39.0,-99.9,-100.00,North,359,2.0,7.0,-999,0.00,,,-99.99,,2013-02-24 21:52:00,
2013-02-24 15:01:00,40.0,-99.9,-100.00,NNW,339,2.0,5.0,-999,0.00,,,-99.99,,2013-02-24 22:01:00,
2013-02-24 15:11:00,40.0,-99.9,-100.00,NNW,339,2.0,5.0,-999,0.00,,,-99.99,,2013-02-24 22:11:00,
2013-02-24 15:22:00,39.0,-99.9,-100.00,NNW,340,3.0,6.0,-999,0.00,,,-99.99,,2013-02-24 22:22:00,
2013-02-24 15:32:00,40.0,-99.9,-100.00,North,0,0.0,0.0,-999,0.00,,,-99.99,,2013-02-24 22:32:00,
2013-02-24 15:42:00,40.0,-99.9,-100.00,North,0,0.0,0.0,-999,0.00,,,-99.99,,2013-02-24 22:42:00,
2013-02-24 15:52:00,40.0,-99.9,-100.00,NNW,346,2.0,7.0,-999,0.00,,,-99.99,,2013-02-24 22:52:00,
2013-02-24 16:02:00,41.0,-99.9,-100.00,North,0,0.0,0.0,-999,0.00,,,-99.99,,2013-02-24 23:02:00,
2013-02-24 16:11:00,41.0,-99.9,-100.00,North,0,0.0,0.0,-999,0.00,,,-99.99,,2013-02-24 23:11:00,
2013-02-24 16:22:00,42.0,-99.9,-100.00,North,0,0.0,0.0,-999,0.00,,,-99.99,,2013-02-24 23:22:00,
2013-02-24 16:32:00,41.0,-99.9,-100.00,North,0,0.0,0.0,-999,0.00,,,-99.99,,2013-02-24 23:32:00,
2013-02-24 16:42:00,41.0,-99.9,-100.00,North,0,0.0,0.0,-999,0.00,,,-99.99,,2013-02-24 23:42:00,
2013-02-24 16:52:00,42.0,-99.9,-100.00,North,0,0.0,0.0,-999,0.00,,,-99.99,,2013-02-24 23:52:00,
2013-02-24 17:02:00,42.0,-99.9,-100.00,North,0,0.0,0.0,-999,0.00,,,-99.99,,2013-02-25 00:02:00,
2013-02-24 17:11:00,42.0,-99.9,-100.00,North,0,0.0,0.0,-999,0.00,,,-99.99,,2013-02-25 00:11:00,
2013-02-24 17:22:00,40.0,-99.9,-100.00,North,0,0.0,0.0,-999,0.00,,,-99.99,,2013-02-25 00:22:00,
2013-02-24 17:32:00,40.0,-99.9,-100.00,North,0,0.0,0.0,-999,0.00,,,-99.99,,2013-02-25 00:32:00,
2013-02-24 17:42:00,40.0,-99.9,-100.00,North,0,0.0,0.0,-999,0.00,,,-99.99,,2013-02-25 00:42:00,
2013-02-24 17:52:00,36.0,-99.9,-100.00,North,0,0.0,0.0,-999,0.00,,,-99.99,,2013-02-25 00:52:00,
2013-02-24 18:02:00,35.0,-99.9,-100.00,North,0,0.0,0.0,-999,0.00,,,-99.99,,2013-02-25 01:02:00,
2013-02-24 18:11:00,33.0,-99.9,-100.00,North,0,0.0,0.0,-999,0.00,,,-99.99,,2013-02-25 01:11:00,
2013-02-24 18:22:00,33.0,-99.9,-100.00,North,0,0.0,0.0,-999,0.00,,,-99.99,,2013-02-25 01:22:00,
2013-02-24 18:32:00,32.0,-99.9,-100.00,North,0,0.0,0.0,-999,0.00,,,-99.99,,2013-02-25 01:32:00,
2013-02-24 18:42:00,32.0,-99.9,-100.00,North,0,0.0,0.0,-999,0.00,,,-99.99,,2013-02-25 01:42:00,
2013-02-24 18:52:00,32.0,-99.9,-100.00,North,0,0.0,0.0,-999,0.00,,,-99.99,,2013-02-25 01:52:00,
2013-02-24 19:01:00,32.0,-99.9,-100.00,North,0,0.0,0.0,-999,0.00,,,-99.99,,2013-02-25 02:01:00,
2013-02-24 19:11:00,31.0,-99.9,-100.00,North,0,0.0,0.0,-999,0.00,,,-99.99,,2013-02-25 02:11:00,
2013-02-24 19:22:00,31.0,-99.9,-100.00,North,0,0.0,0.0,-999,0.00,,,-99.99,,2013-02-25 02:22:00,
2013-02-24 19:32:00,31.0,-99.9,-100.00,North,0,0.0,0.0,-999,0.00,,,-99.99,,2013-02-25 02:32:00,
2013-02-24 19:42:00,31.0,-99.9,-100.00,North,0,0.0,0.0,-999,0.00,,,-99.99,,2013-02-25 02:42:00,
2013-02-24 19:52:00,32.0,-99.9,-100.00,North,0,0.0,0.0,-999,0.00,,,-99.99,,2013-02-25 02:52:00,
2013-02-24 20:02:00,30.0,-99.9,-100.00,North,0,0.0,0.0,-999,0.00,,,-99.99,,2013-02-25 03:02:00,
2013-02-24 20:11:00,30.0,-99.9,-100.00,North,0,0.0,0.0,-999,0.00,,,-99.99,,2013-02-25 03:11:00,
2013-02-24 20:21:00,30.0,-99.9,-100.00,North,0,0.0,0.0,-999,0.00,,,-99.99,,2013-02-25 03:21:00,
2013-02-24 20:32:00,30.0,-99.9,-100.00,North,0,0.0,0.0,-999,0.00,,,-99.99,,2013-02-25 03:32:00,
2013-02-24 20:42:00,30.0,-99.9,-100.00,North,0,0.0,0.0,-999,0.00,,,-99.99,,2013-02-25 03:42:00,
2013-02-24 20:52:00,30.0,-99.9,-100.00,North,0,0.0,0.0,-999,0.00,,,-99.99,,2013-02-25 03:52:00,
2013-02-24 21:02:00,30.0,-99.9,-100.00,North,0,0.0,0.0,-999,0.00,,,-99.99,,2013-02-25 04:02:00,
2013-02-24 21:11:00,30.0,-99.9,-100.00,North,0,0.0,0.0,-999,0.00,,,-99.99,,2013-02-25 04:11:00,
2013-02-24 21:22:00,29.0,-99.9,-100.00,North,0,0.0,0.0,-999,0.00,,,-99.99,,2013-02-25 04:22:00,
2013-02-24 21:32:00,29.0,-99.9,-100.00,North,0,0.0,0.0,-999,0.00,,,-99.99,,2013-02-25 04:32:00,
2013-02-24 21:42:00,29.0,-99.9,-100.00,North,0,0.0,0.0,-999,0.00,,,-99.99,,2013-02-25 04:42:00,
2013-02-24 21:52:00,28.0,-99.9,-100.00,North,0,0.0,0.0,-999,0.00,,,-99.99,,2013-02-25 04:52:00,
2013-02-24 22:01:00,28.0,-99.9,-100.00,North,0,0.0,0.0,-999,0.00,,,-99.99,,2013-02-25 05:01:00,
2013-02-24 22:11:00,28.0,-99.9,-100.00,North,0,0.0,0.0,-999,0.00,,,-99.99,,2013-02-25 05:11:00,
2013-02-24 22:22:00,28.0,-99.9,-100.00,North,0,0.0,0.0,-999,0.00,,,-99.99,,2013-02-25 05:22:00,
2013-02-24 22:32:00,28.0,-99.9,-100.00,North,0,0.0,0.0,-999,0.00,,,-99.99,,2013-02-25 05:32:00,
2013-02-24 22:42:00,28.0,-99.9,-100.00,North,0,0.0,0.0,-999,0.00,,,-99.99,,2013-02-25 05:42:00,
2013-02-24 22:52:00,28.0,-99.9,-100.00,North,0,0.0,0.0,-999,0.00,,,-99.99,,2013-02-25 05:52:00,
2013-02-24 23:03:00,28.0,-99.9,-100.00,North,0,0.0,0.0,-999,0.00,,,-99.99,,2013-02-25 06:03:00,
2013-02-24 23:12:00,28.0,-99.9,-100.00,North,0,0.0,0.0,-999,0.00,,,-99.99,,2013-02-25 06:12:00,
2013-02-24 23:22:00,28.0,-99.9,-100.00,North,0,0.0,0.0,-999,0.00,,,-99.99,,2013-02-25 06:22:00,
2013-02-24 23:32:00,28.0,-99.9,-100.00,North,0,0.0,0.0,-999,0.00,,,-99.99,,2013-02-25 06:32:00,
2013-02-24 23:42:00,28.0,-99.9,-100.00,North,0,0.0,0.0,-999,0.00,,,-99.99,,2013-02-25 06:42:00,
2013-02-24 23:52:00,28.0,-99.9,-100.00,North,0,0.0,0.0,-999,0.00,,,-99.99,,2013-02-25 06:52:00,